WB5HZM-3 Weather Reports


Display with metric or nautical units.
time (UTC)temp
F
wind
direction
speed
MPH
gust
MPH
rain 1hr
in
rain 24hr
in
rain mn
in
humidity
%
barometer
mb
20220927052326 77 44 8.0 10.0 0.00 0.00 0.00 50 1019.0
20220927051319 77 38 9.0 12.0 0.00 0.00 0.00 49 1019.1
20220927050333 78 40 8.0 11.0 0.00 0.00 0.00 47 1019.1
20220927045330 78 49 8.0 11.0 0.00 0.00 0.00 47 1019.0
20220927044322 78 54 9.0 12.0 0.00 0.00 0.00 47 1019.1
20220927043315 78 59 10.0 12.0 0.00 0.00 0.00 45 1019.1
20220927042333 78 44 10.0 14.0 0.00 0.00 0.00 46 1019.2
20220927041326 79 44 11.0 13.0 0.00 0.00 0.00 45 1019.1
20220927040318 79 42 10.0 13.0 0.00 0.00 0.00 44 1019.1
20220927035332 79 36 10.0 14.0 0.00 0.00 0.00 45 1019.1
20220927034329 79 33 11.0 15.0 0.00 0.00 0.00 47 1019.0
20220927033321 79 5 13.0 16.0 0.00 0.00 0.00 44 1018.9
20220927032314 79 37 13.0 16.0 0.00 0.00 0.00 46 1018.9
20220927031332 79 41 11.0 15.0 0.00 0.00 0.00 49 1018.8
20220927030326 79 52 11.0 13.0 0.00 0.00 0.00 46 1018.7
20220927025318 79 21 11.0 14.0 0.00 0.00 0.00 44 1018.8
20220927024332 80 28 12.0 15.0 0.00 0.00 0.00 46 1018.7
20220927023329 80 10 12.0 14.0 0.00 0.00 0.00 47 1018.6
20220927022322 80 24 11.0 16.0 0.00 0.00 0.00 44 1018.5
20220927021315 81 41 12.0 15.0 0.00 0.00 0.00 42 1018.4
20220927020332 81 34 12.0 16.0 0.00 0.00 0.00 43 1018.2
20220927015325 81 39 12.0 15.0 0.00 0.00 0.00 44 1018.0
20220927014319 82 47 11.0 17.0 0.00 0.00 0.00 48 1017.7
20220927013333 82 44 13.0 15.0 0.00 0.00 0.00 39 1017.5
20220927012329 82 50 12.0 16.0 0.00 0.00 0.00 46 1017.4
20220927011320 83 28 11.0 15.0 0.00 0.00 0.00 42 1017.2
20220927010333 83 30 11.0 14.0 0.00 0.00 0.00 44 1017.2
20220927005331 83 34 12.0 14.0 0.00 0.00 0.00 41 1017.0
20220927004324 84 33 12.0 14.0 0.00 0.00 0.00 43 1016.8
20220927003316 84 30 12.0 14.0 0.00 0.00 0.00 39 1016.7
20220927002330 84 39 10.0 14.0 0.00 0.00 0.00 43 1016.7
20220927001327 85 36 11.0 15.0 0.00 0.00 0.00 41 1016.7
20220927000322 85 12 13.0 17.0 0.00 0.00 0.00 46 1016.5
20220926235333 85 20 12.0 15.0 0.00 0.00 0.00 43 1016.5
20220926234331 85 24 13.0 19.0 0.00 0.00 0.00 42 1016.3
20220926233326 85 17 15.0 18.0 0.00 0.00 0.00 41 1016.1
20220926232318 85 12 15.0 17.0 0.00 0.00 0.00 44 1016.0
20220926231332 85 20 13.0 15.0 0.00 0.00 0.00 44 1015.9
20220926230330 86 27 12.0 17.0 0.00 0.00 0.00 44 1015.9
20220926225323 86 24 14.0 17.0 0.00 0.00 0.00 44 1015.8
20220926224315 86 29 13.0 16.0 0.00 0.00 0.00 41 1015.8
20220926223330 86 20 11.0 14.0 0.00 0.00 0.00 46 1015.7
20220926222324 86 19 11.0 15.0 0.00 0.00 0.00 37 1015.7
20220926221318 86 32 12.0 16.0 0.00 0.00 0.00 48 1015.7
20220926220331 86 19 13.0 16.0 0.00 0.00 0.00 41 1015.7
20220926215328 86 360 12.0 15.0 0.00 0.00 0.00 46 1015.6
20220926214320 86 11 14.0 16.0 0.00 0.00 0.00 43 1015.6
20220926213333 86 5 11.0 16.0 0.00 0.00 0.00 48 1015.6
20220926212331 86 9 11.0 14.0 0.00 0.00 0.00 46 1015.7
20220926211325 86 11 11.0 14.0 0.00 0.00 0.00 43 1015.7
20220926210317 86 11 8.0 12.0 0.00 0.00 0.00 44 1015.7
20220926205331 85 12 11.0 15.0 0.00 0.00 0.00 45 1015.8
20220926204329 85 12 11.0 13.0 0.00 0.00 0.00 46 1015.9
20220926203323 85 18 11.0 14.0 0.00 0.00 0.00 44 1016.0
20220926202315 85 9 10.0 16.0 0.00 0.00 0.00 47 1016.0
20220926201332 85 360 11.0 15.0 0.00 0.00 0.00 50 1016.0
20220926200326 85 15 12.0 14.0 0.00 0.00 0.00 50 1016.1
20220926195318 84 11 11.0 16.0 0.00 0.00 0.00 45 1016.3
20220926194331 84 360 11.0 15.0 0.00 0.00 0.00 49 1016.4
20220926193329 84 19 10.0 16.0 0.00 0.00 0.00 49 1016.6
20220926192322 84 360 10.0 13.0 0.00 0.00 0.00 49 1016.8
20220926191315 84 5 13.0 16.0 0.00 0.00 0.00 50 1017.0
20220926190333 83 355 14.0 17.0 0.00 0.00 0.00 48 1017.1
20220926185326 83 355 11.0 17.0 0.00 0.00 0.00 53 1017.3
20220926184318 83 5 14.0 16.0 0.00 0.00 0.00 51 1017.4
20220926183332 83 9 12.0 15.0 0.00 0.00 0.00 52 1017.6
20220926182329 82 360 13.0 17.0 0.00 0.00 0.00 54 1017.6
20220926181323 82 346 12.0 17.0 0.00 0.00 0.00 55 1017.7
20220926180315 82 9 11.0 16.0 0.00 0.00 0.00 59 1017.8
20220926175332 82 355 13.0 16.0 0.00 0.00 0.00 57 1018.0
20220926174325 81 355 12.0 18.0 0.00 0.00 0.00 54 1018.1
20220926173318 81 5 12.0 15.0 0.00 0.00 0.00 59 1018.3
20220926172332 81 349 13.0 16.0 0.00 0.00 0.00 55 1018.3
20220926171329 81 11 14.0 15.0 0.00 0.00 0.00 59 1018.4
20220926170322 81 39 10.0 14.0 0.00 0.00 0.00 56 1018.5
20220926165315 81 22 12.0 18.0 0.00 0.00 0.00 56 1018.5
20220926164332 80 50 9.0 12.0 0.00 0.00 0.00 61 1018.5
20220926163326 80 34 11.0 15.0 0.00 0.00 0.00 60 1018.6
20220926162320 80 28 9.0 12.0 0.00 0.00 0.00 64 1018.6
20220926161314 79 67 8.0 13.0 0.00 0.00 0.00 64 1018.6
20220926160331 79 25 9.0 15.0 0.00 0.00 0.00 64 1018.6
20220926155324 79 49 9.0 13.0 0.00 0.00 0.00 66 1018.6
20220926154317 78 40 9.0 13.0 0.00 0.00 0.00 68 1018.6
20220926153314 78 46 11.0 15.0 0.00 0.00 0.00 68 1018.5
20220926152327 78 45 10.0 14.0 0.00 0.00 0.00 69 1018.5
20220926151321 77 30 7.0 12.0 0.00 0.00 0.00 70 1018.4
20220926150315 77 47 8.0 14.0 0.00 0.00 0.00 74 1018.4
20220926145333 77 34 10.0 12.0 0.00 0.00 0.00 72 1018.3
20220926144326 76 29 9.0 13.0 0.00 0.00 0.00 73 1018.2
20220926143319 76 35 9.0 12.0 0.00 0.00 0.00 74 1018.1
20220926142316 76 38 9.0 13.0 0.00 0.00 0.00 73 1018.0
20220926141329 75 44 9.0 12.0 0.00 0.00 0.00 75 1017.9
20220926140322 75 17 8.0 14.0 0.00 0.00 0.00 75 1017.7
20220926135315 75 18 9.0 12.0 0.00 0.00 0.00 74 1017.7
20220926134332 75 49 8.0 12.0 0.00 0.00 0.00 74 1017.7
20220926133326 75 38 9.0 13.0 0.00 0.00 0.00 75 1017.6
20220926132320 75 13 10.0 13.0 0.00 0.00 0.00 74 1017.5
20220926131318 76 49 11.0 15.0 0.00 0.00 0.00 75 1017.3
20220926130331 76 48 11.0 15.0 0.00 0.00 0.00 75 1017.2
20220926125325 76 19 11.0 16.0 0.00 0.00 0.00 77 1017.0
20220926124319 76 24 11.0 14.0 0.00 0.00 0.00 75 1016.7
20220926123314 76 28 10.0 14.0 0.00 0.00 0.00 79 1016.6
20220926122328 76 26 11.0 15.0 0.00 0.00 0.00 78 1016.4
20220926121321 76 5 10.0 14.0 0.00 0.00 0.00 77 1016.3
20220926120318 76 22 10.0 14.0 0.00 0.00 0.00 77 1016.1
20220926115331 76 350 10.0 14.0 0.00 0.00 0.00 78 1016.1
20220926114324 77 355 11.0 15.0 0.00 0.00 0.00 76 1015.9
20220926113318 77 19 11.0 13.0 0.00 0.00 0.00 76 1015.9
20220926112316 77 355 10.0 12.0 0.00 0.00 0.00 75 1015.7
20220926111330 78 15 8.0 11.0 0.00 0.00 0.00 74 1015.6
20220926110324 78 13 10.0 14.0 0.00 0.00 0.00 75 1015.5
20220926105321 78 360 11.0 15.0 0.00 0.00 0.00 75 1015.3
20220926104315 78 5 13.0 16.0 0.00 0.00 0.00 75 1015.2
20220926103329 78 355 12.0 15.0 0.00 0.00 0.00 77 1015.0
20220926102323 77 321 0.0 0.0 0.00 0.00 0.00 79 1015.0
20220926101317 77 346 0.0 0.0 0.00 0.00 0.00 77 1014.8
20220926100330 76 331 0.0 0.0 0.00 0.00 0.00 75 1014.8
20220926095324 76 308 0.0 0.0 0.00 0.00 0.00 76 1014.8
20220926094321 75 263 0.0 0.0 0.00 0.00 0.00 75 1014.7
20220926093315 76 311 0.0 0.0 0.00 0.00 0.00 74 1014.7
20220926092328 76 288 0.0 0.0 0.00 0.00 0.00 74 1014.6
20220926091321 76 270 0.0 0.0 0.00 0.00 0.00 74 1014.6
20220926090319 76 290 0.0 0.0 0.00 0.00 0.00 74 1014.7
20220926085332 77 261 0.0 0.0 0.00 0.00 0.00 73 1014.6
20220926084326 77 253 0.0 0.0 0.00 0.00 0.00 74 1014.7
20220926083324 77 298 0.0 0.0 0.00 0.00 0.00 72 1014.6
20220926082316 77 339 0.0 0.0 0.00 0.00 0.00 72 1014.5
20220926081330 77 290 0.0 0.0 0.00 0.00 0.00 72 1014.5
20220926080324 77 268 0.0 0.0 0.00 0.00 0.00 71 1014.5
20220926075320 78 271 0.0 0.0 0.00 0.00 0.00 71 1014.4
20220926074333 78 173 0.0 0.0 0.00 0.00 0.00 70 1014.4
20220926073327 78 158 0.0 0.0 0.00 0.00 0.00 71 1014.5
20220926072324 78 188 0.0 0.0 0.00 0.00 0.00 70 1014.4
20220926071317 78 197 0.0 0.0 0.00 0.00 0.00 71 1014.5
20220926070331 78 233 0.0 0.0 0.00 0.00 0.00 71 1014.5
20220926065325 78 258 0.0 0.0 0.00 0.00 0.00 71 1014.5
20220926064319 78 278 0.0 0.0 0.00 0.00 0.00 70 1014.6
20220926063332 78 277 0.0 0.0 0.00 0.00 0.00 70 1014.7
20220926062326 78 277 0.0 0.0 0.00 0.00 0.00 70 1014.8
20220926061323 78 277 0.0 0.0 0.00 0.00 0.00 70 1014.8
20220926060316 79 277 0.0 0.0 0.00 0.00 0.00 67 1014.9
20220926055330 79 277 0.0 0.0 0.00 0.00 0.00 64 1014.8
20220926054324 80 277 0.0 0.0 0.00 0.00 0.00 63 1015.0
20220926053320 80 279 0.0 0.0 0.00 0.00 0.00 62 1015.0